Regional Weather Roundup
Issued by NWS

Home | Current Version | Previous Version | Text Only | Print | Product List | Glossary Off
Versions: 1 2 3 4 5 6 7 8 9 10 11 12 13 14 15 16 17 18 19 20 21 22 23 24 25 26 27 28 29 30 31 32 33 34 35 36 37 38 39 40 41 42 43 44 45 46 47 48 49 50

000
ASUS43 KFSD 212110
RWRSD

WEATHER ROUNDUP FOR SOUTH DAKOTA
NATIONAL WEATHER SERVICE SIOUX FALLS SD
300 PM CST SAT JAN 21 2017

NOTE: "FAIR" INDICATES FEW OR NO CLOUDS BELOW 12,000 FEET WITH NO
SIGNIFICANT WEATHER AND/OR OBSTRUCTIONS TO VISIBILITY.


SDZ001>005-009-010-012>017-212200-
NORTHWEST AND NORTH CENTRAL SOUTH DAKOTA

CITY           SKY/WX    TMP DP  RH WIND       PRES   REMARKS
BUFFALO          N/A     36  29  75 W10       29.34R
FAITH            N/A     34  29  82 NW13      29.39R WCI  25
MOBRIDGE       CLOUDY    29  25  85 NW7       29.37R FOG     WCI  22
$$

SDZ012>016-024>037-041>051-057-063-072>074-212200-
SOUTHWEST AND SOUTH CENTRAL SOUTH DAKOTA

CITY           SKY/WX    TMP DP  RH WIND       PRES   REMARKS
RAPID CTY ARPT SUNNY     43  30  60 N8        29.41R
PIERRE         CLOUDY    29  26  89 W5        29.40R WCI  24
CUSTER         SUNNY     38  21  50 CALM      29.36R
ELLSWORTH AFB  SUNNY     41  32  70 NE8       29.41R
PHILIP         SUNNY     40  33  76 W12       29.42R
PINE RIDGE     SUNNY     35  29  78 S5        29.42S
SPEARFISH      FAIR      39  28  65 NW7       29.41R
WINNER         FAIR      46  31  55 W15       29.41R
$$

SDZ004>011-016>023-039-040-212200-
NORTHEAST SOUTH DAKOTA

CITY           SKY/WX    TMP DP  RH WIND       PRES   REMARKS
ABERDEEN       CLOUDY    32  25  75 W6        29.39R WCI  26
WATERTOWN      CLOUDY    32  32 100 W7        29.36R FOG     WCI  26
BROOKINGS      CLOUDY    32  31  96 W8        29.37R FOG     WCI  25
SISSETON         N/A     35  35 100 S5        29.38R
$$

SDZ017-020-022-023-036>040-048>070-212200-
SOUTHEAST SOUTH DAKOTA

CITY           SKY/WX    TMP DP  RH WIND       PRES   REMARKS
SIOUX FALLS    CLOUDY    31  29  92 W10       29.41R WCI  22
HURON          CLOUDY    31  28  89 NW5       29.41R WCI  26
CHAMBERLAIN    SUNNY     36  32  85 NW8       29.42R
MITCHELL       CLOUDY    34  29  82 NW9       29.43R WCI  27
YANKTON        CLOUDY    36  28  75 W8        29.42R
$$

ABBREVIATIONS USED IN REMARKS
   TC - TEMPERATURE IN CELSIUS
  WCI - WIND CHILL INDEX
   HX - HEAT INDEX
  VSB - VISIBILITY





USA.gov is the U.S. government's official web portal to all federal, state and local government web resources and services.